Flag for China Weather past 2 weeks in Suzhou, Jiangsu, China

Now
43 °F

Clear.


Feels Like: 43 °F
Forecast: 38 / 55 °F
Wind: 1 mph from North

Location: Shanghai Hongqiao Airport

Current Time: Mar 2, 2015 at 1:25:23 AM

Latest Report: Mar 2, 2015 at 1:00 AM


Visibility: 4 mi

Pressure: 30.24 "Hg

Humidity: 76%

Dew point: 36 °F

Location of SuzhouLocation

Historic Weather in Suzhou — Graph

°F

Suzhou temperature yesterday

Maximum temperature yesterday: 50 °F (at 1:30 PM)
Minimum temperature yesterday: 37 °F (at 3:00 AM)
Average temperature yesterday: 43 °F

Past Weeks' High & Low Weather Summary

 TemperatureHumidityPressure
High66 °F (Feb 15, 4:00 PM)100% (Feb 15, 8:30 AM)30.42 "Hg (Feb 15, 8:30 AM)
Low34 °F (Feb 19, 4:00 AM)29% (Feb 17, 3:00 PM)29.89 "Hg (Feb 15, 3:30 PM)
Average47 °F77%30.16 "Hg
* Reported Midnight between Feb 14 and Feb 15 — Midnight between Mar 1 and Mar 2, Suzhou, Weather by CustomWeather, © 2015

Note: Actual official high and low records may vary slightly from our data, if they occured in-between our weather recording intervals... More about our weather records

Advertising

Suzhou weather history for previous 24 hours

 ConditionsComfort  
Time TempWeatherWind HumidityBarometerVisibility
12:00 AM
Mon, Mar 2
43 °FClear.1 mph76%30.24 "Hg4 mi
11:30 PM
Sun, Mar 1
43 °FClear.1 mph76%30.27 "Hg4 mi
11:00 PM43 °FClear.No wind76%30.27 "Hg4 mi
10:30 PM43 °FClear.3 mph76%30.27 "Hg4 mi
10:00 PM43 °FClear.3 mph76%30.27 "Hg4 mi
9:30 PM45 °FClear.3 mph71%30.27 "Hg4 mi
9:00 PM45 °FClear.3 mph71%30.27 "Hg4 mi
8:30 PM45 °FClear.6 mph71%30.30 "Hg4 mi
8:00 PM45 °FClear.3 mph71%30.27 "Hg4 mi
7:30 PM45 °FClear.6 mph71%30.30 "Hg4 mi
7:00 PM45 °FClear.8 mph66%30.30 "Hg4 mi
6:30 PM45 °FClear.6 mph71%30.27 "Hg4 mi
6:00 PM46 °FClear.8 mph66%30.27 "Hg4 mi
5:30 PM46 °FClear.8 mph66%30.27 "Hg4 mi
5:00 PM48 °FClear.8 mph54%30.27 "Hg4 mi
4:30 PM48 °FPassing clouds.8 mph54%30.27 "Hg4 mi
4:00 PM48 °FPassing clouds.8 mph54%30.27 "Hg4 mi
3:30 PM48 °FPassing clouds.8 mph54%30.27 "Hg4 mi
3:00 PM48 °FPassing clouds.10 mph54%30.27 "Hg4 mi
2:30 PM48 °FPassing clouds.10 mph54%30.30 "Hg4 mi
2:00 PM50 °FPassing clouds.8 mph50%30.27 "Hg4 mi
1:30 PM50 °FPassing clouds.10 mph54%30.27 "Hg4 mi
1:00 PM48 °FPassing clouds.10 mph58%30.30 "Hg4 mi
12:30 PM48 °FScattered clouds.15 mph58%30.33 "Hg4 mi
12:00 PM46 °FScattered clouds.13 mph57%30.33 "Hg4 mi
11:30 AM46 °FPassing clouds.13 mph57%30.33 "Hg4 mi
11:00 AM45 °FClear.13 mph66%30.33 "Hg4 mi
10:30 AM45 °FClear.17 mph61%30.36 "Hg4 mi
10:00 AM43 °FClear.15 mph66%30.36 "Hg4 mi
9:30 AM43 °FClear.13 mph66%30.33 "Hg4 mi
9:00 AM41 °FClear.13 mph70%30.36 "Hg4 mi
8:30 AM39 °FClear.13 mph81%30.36 "Hg4 mi
8:00 AM39 °FClear.13 mph75%30.36 "Hg4 mi
7:30 AM37 °FClear.10 mph81%30.36 "Hg4 mi
7:00 AM37 °FClear.10 mph87%30.36 "Hg4 mi
6:30 AM37 °FScattered clouds.10 mph81%30.33 "HgN/A
6:00 AM37 °FPassing clouds.13 mph81%30.33 "HgN/A
5:30 AM37 °FPassing clouds.10 mph81%30.30 "HgN/A
5:00 AM37 °FOvercast.13 mph81%30.30 "HgN/A
4:30 AM37 °FMostly cloudy.13 mph81%30.30 "HgN/A
4:00 AM37 °FOvercast.13 mph87%30.30 "HgN/A
3:30 AM37 °FOvercast.10 mph87%30.27 "HgN/A
3:00 AM37 °FPassing clouds.13 mph87%30.27 "HgN/A
2:30 AM39 °FPassing clouds.15 mph81%30.30 "HgN/A
2:00 AM39 °FMostly cloudy.13 mph87%30.30 "HgN/A
1:30 AM39 °FMostly cloudy.13 mph87%30.30 "HgN/A
1:00 AM39 °FMostly cloudy.15 mph81%30.30 "HgN/A
Weather by CustomWeather, © 2015

See weather overviewHow to use our weather pages